| time (UTC) | temp F | wind direction | speed MPH | gust MPH | rain 1hr in | rain 24hr in | rain mn in | humidity % | barometer mb |
| 20260510201531 | 54 | 306 | 11.0 | 24.0 | 0.00 | 0.06 | 0.06 | 61 | 1010.5 |
| 20260510201019 | 54 | 280 | 14.0 | 25.0 | 0.00 | 0.06 | 0.06 | 59 | 1010.4 |
| 20260510200517 | 54 | 273 | 15.0 | 26.0 | 0.00 | 0.06 | 0.06 | 57 | 1010.4 |
| 20260510200033 | 56 | 277 | 16.0 | 26.0 | 0.00 | 0.06 | 0.06 | 53 | 1010.4 |
| 20260510195516 | 56 | 269 | 18.0 | 26.0 | 0.00 | 0.06 | 0.06 | 53 | 1010.2 |
| 20260510195016 | 57 | 282 | 17.0 | 24.0 | 0.00 | 0.06 | 0.06 | 50 | 1010.1 |
| 20260510194537 | 57 | 269 | 13.0 | 26.0 | 0.00 | 0.06 | 0.06 | 50 | 1010.1 |
| 20260510194019 | 56 | 269 | 15.0 | 27.0 | 0.00 | 0.06 | 0.06 | 49 | 1009.9 |
| 20260510193517 | 56 | 252 | 18.0 | 27.0 | 0.00 | 0.06 | 0.06 | 48 | 1009.9 |
| 20260510193035 | 57 | 277 | 11.0 | 18.0 | 0.00 | 0.06 | 0.06 | 49 | 1009.9 |
| 20260510192516 | 57 | 280 | 12.0 | 23.0 | 0.00 | 0.06 | 0.06 | 48 | 1009.8 |
| 20260510192016 | 57 | 244 | 11.0 | 23.0 | 0.00 | 0.06 | 0.06 | 49 | 1009.8 |
| 20260510191535 | 57 | 232 | 15.0 | 23.0 | 0.00 | 0.06 | 0.06 | 47 | 1009.7 |
| 20260510191018 | 57 | 248 | 17.0 | 23.0 | 0.00 | 0.06 | 0.06 | 45 | 1009.6 |
| 20260510190516 | 58 | 248 | 17.0 | 23.0 | 0.00 | 0.06 | 0.06 | 46 | 1009.5 |
| 20260510190045 | 58 | 241 | 16.0 | 27.0 | 0.00 | 0.06 | 0.06 | 45 | 1009.3 |
| 20260510185516 | 58 | 246 | 18.0 | 27.0 | 0.00 | 0.06 | 0.06 | 44 | 1009.3 |
| 20260510185016 | 59 | 261 | 18.0 | 27.0 | 0.00 | 0.06 | 0.06 | 45 | 1009.3 |
| 20260510184533 | 59 | 250 | 16.0 | 27.0 | 0.00 | 0.06 | 0.06 | 43 | 1009.2 |
| 20260510184018 | 59 | 247 | 21.0 | 27.0 | 0.00 | 0.06 | 0.06 | 45 | 1009.1 |
| 20260510183522 | 59 | 247 | 17.0 | 27.0 | 0.00 | 0.06 | 0.06 | 44 | 1009.2 |
| 20260510183031 | 59 | 253 | 12.0 | 24.0 | 0.00 | 0.06 | 0.06 | 45 | 1009.1 |
| 20260510182517 | 58 | 241 | 16.0 | 24.0 | 0.00 | 0.06 | 0.06 | 46 | 1009.3 |
| 20260510182017 | 58 | 256 | 18.0 | 24.0 | 0.00 | 0.06 | 0.06 | 44 | 1009.1 |
| 20260510181531 | 59 | 254 | 17.0 | 26.0 | 0.00 | 0.06 | 0.06 | 45 | 1009.1 |
| 20260510181016 | 59 | 248 | 18.0 | 26.0 | 0.00 | 0.06 | 0.06 | 45 | 1009.1 |
| 20260510180517 | 58 | 240 | 16.0 | 23.0 | 0.00 | 0.06 | 0.06 | 47 | 1009.0 |
| 20260510180031 | 58 | 240 | 18.0 | 25.0 | 0.00 | 0.06 | 0.06 | 45 | 1009.0 |
| 20260510175519 | 59 | 254 | 18.0 | 25.0 | 0.00 | 0.06 | 0.06 | 45 | 1009.1 |
| 20260510175016 | 59 | 234 | 16.0 | 23.0 | 0.00 | 0.06 | 0.06 | 46 | 1008.9 |
| 20260510174533 | 59 | 276 | 16.0 | 22.0 | 0.00 | 0.06 | 0.06 | 46 | 1009.0 |
| 20260510174017 | 60 | 245 | 16.0 | 24.0 | 0.00 | 0.06 | 0.06 | 46 | 1009.0 |
| 20260510173519 | 59 | 283 | 18.0 | 25.0 | 0.00 | 0.06 | 0.06 | 45 | 1009.0 |
| 20260510173035 | 59 | 244 | 17.0 | 25.0 | 0.00 | 0.06 | 0.06 | 46 | 1008.9 |
| 20260510172518 | 59 | 236 | 17.0 | 25.0 | 0.00 | 0.06 | 0.06 | 47 | 1008.9 |
| 20260510172014 | 58 | 257 | 13.0 | 30.0 | 0.00 | 0.06 | 0.06 | 49 | 1009.0 |
| 20260510171533 | 59 | 235 | 22.0 | 30.0 | 0.00 | 0.06 | 0.06 | 49 | 1008.9 |
| 20260510171016 | 59 | 227 | 14.0 | 23.0 | 0.00 | 0.06 | 0.06 | 50 | 1008.9 |
| 20260510170527 | 59 | 302 | 15.0 | 25.0 | 0.00 | 0.06 | 0.06 | 48 | 1008.8 |
| 20260510170033 | 59 | 239 | 18.0 | 25.0 | 0.00 | 0.06 | 0.06 | 48 | 1008.8 |
| 20260510165517 | 59 | 236 | 17.0 | 25.0 | 0.00 | 0.06 | 0.06 | 49 | 1008.7 |
| 20260510165016 | 59 | 240 | 17.0 | 25.0 | 0.00 | 0.06 | 0.06 | 50 | 1008.6 |
| 20260510164532 | 58 | 262 | 15.0 | 24.0 | 0.00 | 0.06 | 0.06 | 49 | 1008.7 |
| 20260510164016 | 58 | 225 | 17.0 | 25.0 | 0.00 | 0.06 | 0.06 | 50 | 1008.6 |
| 20260510163517 | 58 | 248 | 18.0 | 25.0 | 0.00 | 0.06 | 0.06 | 50 | 1008.6 |
| 20260510163046 | 58 | 248 | 16.0 | 25.0 | 0.00 | 0.06 | 0.06 | 50 | 1008.7 |
| 20260510162519 | 59 | 250 | 16.0 | 25.0 | 0.00 | 0.06 | 0.06 | 49 | 1008.6 |
| 20260510162017 | 59 | 242 | 19.0 | 25.0 | 0.00 | 0.06 | 0.06 | 50 | 1008.5 |
| 20260510161536 | 58 | 232 | 15.0 | 23.0 | 0.00 | 0.06 | 0.06 | 50 | 1008.5 |
| 20260510161017 | 59 | 205 | 15.0 | 25.0 | 0.00 | 0.06 | 0.06 | 54 | 1008.5 |
| 20260510160517 | 58 | 253 | 17.0 | 25.0 | 0.00 | 0.06 | 0.06 | 52 | 1008.5 |
| 20260510160032 | 58 | 238 | 16.0 | 24.0 | 0.00 | 0.06 | 0.06 | 52 | 1008.6 |
| 20260510155517 | 57 | 243 | 16.0 | 24.0 | 0.00 | 0.06 | 0.06 | 53 | 1008.4 |
| 20260510155017 | 57 | 237 | 13.0 | 25.0 | 0.00 | 0.06 | 0.06 | 56 | 1008.4 |
| 20260510154532 | 57 | 241 | 17.0 | 25.0 | 0.00 | 0.06 | 0.06 | 52 | 1008.5 |
| 20260510154018 | 57 | 252 | 17.0 | 25.0 | 0.00 | 0.06 | 0.06 | 52 | 1008.4 |
| 20260510153517 | 58 | 234 | 18.0 | 25.0 | 0.00 | 0.06 | 0.06 | 54 | 1008.4 |
| 20260510153047 | 58 | 218 | 14.0 | 23.0 | 0.00 | 0.06 | 0.06 | 55 | 1008.3 |
| 20260510152518 | 57 | 239 | 16.0 | 23.0 | 0.00 | 0.06 | 0.06 | 55 | 1008.3 |
| 20260510152017 | 58 | 231 | 16.0 | 22.0 | 0.00 | 0.06 | 0.06 | 55 | 1008.2 |
| 20260510151535 | 58 | 187 | 16.0 | 24.0 | 0.00 | 0.06 | 0.06 | 55 | 1008.2 |
| 20260510151017 | 57 | 231 | 16.0 | 24.0 | 0.00 | 0.06 | 0.06 | 57 | 1008.1 |
| 20260510150516 | 57 | 220 | 14.0 | 21.0 | 0.00 | 0.06 | 0.06 | 57 | 1008.1 |
| 20260510150039 | 57 | 206 | 14.0 | 22.0 | 0.00 | 0.06 | 0.06 | 58 | 1008.1 |
| 20260510145518 | 57 | 222 | 14.0 | 23.0 | 0.00 | 0.06 | 0.06 | 58 | 1008.1 |
| 20260510145017 | 56 | 213 | 16.0 | 23.0 | 0.00 | 0.06 | 0.06 | 57 | 1008.0 |
| 20260510144541 | 56 | 252 | 15.0 | 22.0 | 0.00 | 0.06 | 0.06 | 63 | 1007.9 |
| 20260510144017 | 56 | 232 | 14.0 | 20.0 | 0.00 | 0.06 | 0.06 | 60 | 1008.0 |
| 20260510143517 | 56 | 234 | 12.0 | 19.0 | 0.00 | 0.06 | 0.06 | 62 | 1008.0 |
| 20260510143036 | 56 | 225 | 13.0 | 23.0 | 0.00 | 0.06 | 0.06 | 63 | 1008.0 |
| 20260510142520 | 56 | 255 | 14.0 | 23.0 | 0.00 | 0.06 | 0.06 | 61 | 1008.0 |
| 20260510142018 | 56 | 221 | 15.0 | 22.0 | 0.00 | 0.06 | 0.06 | 65 | 1007.8 |
| 20260510141531 | 55 | 254 | 10.0 | 20.0 | 0.00 | 0.06 | 0.06 | 66 | 1007.9 |
| 20260510141017 | 55 | 238 | 13.0 | 20.0 | 0.00 | 0.06 | 0.06 | 68 | 1007.9 |
| 20260510140516 | 55 | 233 | 12.0 | 21.0 | 0.00 | 0.06 | 0.06 | 64 | 1007.9 |
| 20260510140036 | 55 | 234 | 15.0 | 21.0 | 0.00 | 0.06 | 0.06 | 63 | 1007.8 |
| 20260510135516 | 55 | 267 | 16.0 | 21.0 | 0.00 | 0.06 | 0.06 | 66 | 1007.8 |
| 20260510135017 | 55 | 218 | 15.0 | 22.0 | 0.00 | 0.06 | 0.06 | 68 | 1007.7 |
| 20260510134534 | 55 | 209 | 14.0 | 22.0 | 0.00 | 0.06 | 0.06 | 68 | 1007.6 |
| 20260510134017 | 55 | 248 | 15.0 | 22.0 | 0.00 | 0.06 | 0.06 | 66 | 1007.7 |
| 20260510133516 | 55 | 238 | 17.0 | 22.0 | 0.00 | 0.06 | 0.06 | 70 | 1007.7 |
| 20260510133034 | 54 | 250 | 16.0 | 23.0 | 0.00 | 0.06 | 0.06 | 65 | 1007.6 |
| 20260510132522 | 54 | 232 | 17.0 | 23.0 | 0.00 | 0.06 | 0.06 | 65 | 1007.5 |
| 20260510132019 | 55 | 223 | 14.0 | 20.0 | 0.00 | 0.06 | 0.06 | 71 | 1007.4 |
| 20260510131531 | 54 | 263 | 16.0 | 22.0 | 0.00 | 0.06 | 0.06 | 69 | 1007.4 |
| 20260510131017 | 54 | 219 | 15.0 | 23.0 | 0.00 | 0.06 | 0.06 | 72 | 1007.3 |
| 20260510130517 | 54 | 238 | 16.0 | 23.0 | 0.00 | 0.06 | 0.06 | 74 | 1007.3 |
| 20260510130034 | 54 | 217 | 15.0 | 22.0 | 0.00 | 0.06 | 0.06 | 76 | 1007.2 |
| 20260510125518 | 54 | 236 | 17.0 | 23.0 | 0.00 | 0.06 | 0.06 | 74 | 1007.1 |
| 20260510125016 | 54 | 234 | 17.0 | 23.0 | 0.00 | 0.06 | 0.06 | 76 | 1007.0 |
| 20260510124609 | 53 | 240 | 15.0 | 25.0 | 0.00 | 0.06 | 0.06 | 78 | 1007.0 |
| 20260510124020 | 53 | 250 | 16.0 | 25.0 | 0.00 | 0.06 | 0.06 | 76 | 1007.0 |
| 20260510123517 | 53 | 230 | 15.0 | 21.0 | 0.00 | 0.06 | 0.06 | 78 | 1006.9 |
| 20260510123031 | 52 | 236 | 15.0 | 21.0 | 0.00 | 0.06 | 0.06 | 80 | 1006.9 |
| 20260510122516 | 52 | 254 | 17.0 | 21.0 | 0.00 | 0.06 | 0.06 | 82 | 1006.9 |
| 20260510122020 | 52 | 240 | 15.0 | 21.0 | 0.00 | 0.06 | 0.06 | 81 | 1006.8 |
| 20260510121534 | 52 | 207 | 13.0 | 21.0 | 0.00 | 0.06 | 0.06 | 83 | 1006.8 |
| 20260510121016 | 52 | 254 | 14.0 | 19.0 | 0.00 | 0.06 | 0.06 | 83 | 1006.7 |
| 20260510120518 | 52 | 244 | 12.0 | 23.0 | 0.00 | 0.06 | 0.06 | 86 | 1006.7 |
| 20260510120035 | 52 | 242 | 16.0 | 23.0 | 0.00 | 0.06 | 0.06 | 84 | 1006.7 |
| 20260510115517 | 52 | 234 | 15.0 | 19.0 | 0.00 | 0.06 | 0.06 | 86 | 1006.7 |
| 20260510115018 | 52 | 248 | 14.0 | 20.0 | 0.00 | 0.06 | 0.06 | 86 | 1006.7 |
| 20260510114536 | 52 | 235 | 14.0 | 20.0 | 0.00 | 0.06 | 0.06 | 86 | 1006.5 |
| 20260510114018 | 52 | 232 | 15.0 | 21.0 | 0.00 | 0.06 | 0.06 | 87 | 1006.5 |
| 20260510113517 | 52 | 234 | 15.0 | 21.0 | 0.00 | 0.06 | 0.06 | 88 | 1006.6 |
| 20260510113032 | 52 | 225 | 13.0 | 19.0 | 0.00 | 0.06 | 0.06 | 87 | 1006.4 |
| 20260510112517 | 52 | 223 | 12.0 | 18.0 | 0.00 | 0.06 | 0.06 | 88 | 1006.2 |
| 20260510112017 | 52 | 229 | 13.0 | 17.0 | 0.00 | 0.06 | 0.06 | 90 | 1006.2 |
| 20260510111534 | 52 | 230 | 11.0 | 15.0 | 0.00 | 0.06 | 0.06 | 90 | 1006.1 |
| 20260510111016 | 51 | 238 | 11.0 | 15.0 | 0.00 | 0.06 | 0.06 | 90 | 1006.0 |
| 20260510110516 | 51 | 236 | 10.0 | 18.0 | 0.00 | 0.06 | 0.06 | 90 | 1005.9 |
| 20260510110037 | 51 | 230 | 12.0 | 20.0 | 0.00 | 0.06 | 0.06 | 90 | 1006.0 |
| 20260510105518 | 51 | 235 | 15.0 | 20.0 | 0.00 | 0.06 | 0.06 | 90 | 1005.9 |
| 20260510105018 | 51 | 221 | 12.0 | 18.0 | 0.00 | 0.06 | 0.06 | 90 | 1005.8 |
| 20260510104532 | 51 | 225 | 11.0 | 17.0 | 0.00 | 0.06 | 0.06 | 91 | 1005.7 |
| 20260510104020 | 51 | 225 | 12.0 | 17.0 | 0.00 | 0.06 | 0.06 | 91 | 1005.7 |
| 20260510103517 | 51 | 226 | 11.0 | 17.0 | 0.00 | 0.06 | 0.06 | 91 | 1005.8 |
| 20260510103034 | 51 | 243 | 12.0 | 17.0 | 0.00 | 0.06 | 0.06 | 91 | 1005.7 |
| 20260510102517 | 51 | 217 | 12.0 | 18.0 | 0.00 | 0.06 | 0.06 | 91 | 1005.6 |
| 20260510102018 | 51 | 227 | 13.0 | 18.0 | 0.00 | 0.06 | 0.06 | 92 | 1005.7 |
| 20260510101535 | 51 | 232 | 13.0 | 18.0 | 0.00 | 0.06 | 0.06 | 92 | 1005.5 |
| 20260510101017 | 50 | 230 | 10.0 | 16.0 | 0.00 | 0.06 | 0.06 | 92 | 1005.4 |
| 20260510100520 | 50 | 225 | 11.0 | 16.0 | 0.00 | 0.06 | 0.06 | 93 | 1005.5 |
| 20260510100059 | 50 | 225 | 7.0 | 15.0 | 0.00 | 0.06 | 0.06 | 93 | 1005.3 |
| 20260510095517 | 50 | 223 | 10.0 | 15.0 | 0.00 | 0.06 | 0.06 | 93 | 1005.3 |
| 20260510095017 | 50 | 219 | 10.0 | 14.0 | 0.00 | 0.06 | 0.06 | 93 | 1005.0 |
| 20260510094549 | 50 | 215 | 8.0 | 15.0 | 0.00 | 0.06 | 0.06 | 93 | 1005.0 |
| 20260510094017 | 50 | 226 | 11.0 | 15.0 | 0.00 | 0.06 | 0.06 | 93 | 1004.9 |
| 20260510093517 | 50 | 225 | 10.0 | 15.0 | 0.00 | 0.06 | 0.06 | 93 | 1005.0 |
| 20260510093037 | 50 | 236 | 11.0 | 15.0 | 0.00 | 0.06 | 0.06 | 93 | 1004.9 |
| 20260510092516 | 50 | 231 | 9.0 | 13.0 | 0.00 | 0.06 | 0.06 | 93 | 1004.6 |
| 20260510092016 | 50 | 238 | 9.0 | 12.0 | 0.00 | 0.06 | 0.06 | 93 | 1004.8 |
| 20260510091531 | 50 | 221 | 8.0 | 15.0 | 0.00 | 0.06 | 0.06 | 92 | 1004.7 |
| 20260510091015 | 50 | 227 | 8.0 | 16.0 | 0.00 | 0.06 | 0.06 | 93 | 1004.7 |
| 20260510090516 | 50 | 221 | 11.0 | 16.0 | 0.00 | 0.06 | 0.06 | 93 | 1004.6 |
| 20260510090040 | 50 | 208 | 8.0 | 15.0 | 0.00 | 0.06 | 0.06 | 93 | 1004.6 |
| 20260510085516 | 50 | 217 | 10.0 | 15.0 | 0.00 | 0.06 | 0.06 | 93 | 1004.6 |
| 20260510085019 | 50 | 221 | 10.0 | 15.0 | 0.00 | 0.06 | 0.06 | 93 | 1004.6 |
| 20260510084531 | 50 | 208 | 10.0 | 15.0 | 0.00 | 0.06 | 0.06 | 93 | 1004.5 |
| 20260510084016 | 50 | 211 | 10.0 | 15.0 | 0.00 | 0.06 | 0.06 | 93 | 1004.5 |
| 20260510083515 | 50 | 215 | 9.0 | 15.0 | 0.00 | 0.06 | 0.06 | 93 | 1004.5 |
| 20260510083031 | 50 | 200 | 9.0 | 14.0 | 0.00 | 0.06 | 0.06 | 93 | 1004.3 |
| 20260510082514 | 50 | 203 | 9.0 | 12.0 | 0.00 | 0.06 | 0.06 | 93 | 1004.3 |
| 20260510082015 | 50 | 201 | 8.0 | 15.0 | 0.00 | 0.06 | 0.06 | 93 | 1004.3 |
| 20260510081543 | 50 | 203 | 9.0 | 15.0 | 0.00 | 0.06 | 0.06 | 93 | 1004.2 |
| 20260510081017 | 50 | 213 | 8.0 | 15.0 | 0.00 | 0.06 | 0.06 | 93 | 1004.2 |
| 20260510080515 | 50 | 199 | 9.0 | 15.0 | 0.00 | 0.06 | 0.06 | 93 | 1004.2 |
| 20260510080032 | 50 | 205 | 9.0 | 15.0 | 0.00 | 0.06 | 0.06 | 93 | 1004.2 |
| 20260510075516 | 50 | 207 | 10.0 | 16.0 | 0.00 | 0.06 | 0.06 | 93 | 1004.2 |
| 20260510075015 | 50 | 208 | 10.0 | 16.0 | 0.00 | 0.06 | 0.06 | 93 | 1004.2 |
| 20260510074534 | 50 | 194 | 8.0 | 17.0 | 0.00 | 0.06 | 0.06 | 92 | 1004.1 |
| 20260510074016 | 50 | 202 | 10.0 | 17.0 | 0.01 | 0.06 | 0.06 | 93 | 1004.1 |
| 20260510073515 | 50 | 207 | 10.0 | 17.0 | 0.01 | 0.06 | 0.06 | 93 | 1004.2 |
| 20260510073031 | 50 | 209 | 10.0 | 19.0 | 0.01 | 0.06 | 0.06 | 93 | 1004.2 |
| 20260510072515 | 50 | 199 | 10.0 | 19.0 | 0.01 | 0.06 | 0.06 | 93 | 1004.1 |
| 20260510072015 | 50 | 205 | 11.0 | 17.0 | 0.01 | 0.06 | 0.06 | 93 | 1004.2 |
| 20260510071537 | 50 | 175 | 11.0 | 18.0 | 0.01 | 0.06 | 0.06 | 93 | 1004.1 |
| 20260510071017 | 50 | 214 | 11.0 | 18.0 | 0.01 | 0.06 | 0.06 | 93 | 1004.1 |
| 20260510070515 | 50 | 166 | 12.0 | 18.0 | 0.02 | 0.06 | 0.06 | 93 | 1004.1 |
| 20260510070039 | 50 | 203 | 10.0 | 18.0 | 0.03 | 0.06 | 0.06 | 93 | 1004.0 |
| 20260510065515 | 50 | 169 | 12.0 | 17.0 | 0.04 | 0.06 | 0.06 | 93 | 1004.0 |
| 20260510065019 | 50 | 176 | 12.0 | 19.0 | 0.05 | 0.06 | 0.06 | 93 | 1004.0 |
| 20260510064534 | 50 | 184 | 13.0 | 19.0 | 0.06 | 0.06 | 0.06 | 93 | 1003.9 |
| 20260510064015 | 50 | 172 | 12.0 | 17.0 | 0.05 | 0.05 | 0.05 | 93 | 1003.9 |
| 20260510063516 | 50 | 159 | 11.0 | 19.0 | 0.05 | 0.05 | 0.05 | 93 | 1003.9 |
| 20260510063035 | 50 | 166 | 12.0 | 19.0 | 0.05 | 0.05 | 0.05 | 93 | 1003.8 |
| 20260510062518 | 50 | 167 | 13.0 | 20.0 | 0.05 | 0.05 | 0.05 | 93 | 1004.0 |
| 20260510062021 | 50 | 177 | 13.0 | 20.0 | 0.05 | 0.05 | 0.05 | 92 | 1003.9 |
| 20260510061534 | 50 | 170 | 12.0 | 19.0 | 0.05 | 0.05 | 0.05 | 92 | 1003.9 |
| 20260510061021 | 50 | 161 | 13.0 | 20.0 | 0.05 | 0.05 | 0.05 | 91 | 1004.1 |
| 20260510060518 | 50 | 177 | 13.0 | 21.0 | 0.04 | 0.04 | 0.04 | 90 | 1004.3 |
| 20260510060033 | 50 | 192 | 13.0 | 21.0 | 0.03 | 0.03 | 0.03 | 89 | 1004.4 |
| 20260510055521 | 50 | 196 | 10.0 | 18.0 | 0.02 | 0.02 | 0.02 | 88 | 1004.5 |
| 20260510055017 | 50 | 220 | 10.0 | 19.0 | 0.01 | 0.01 | 0.01 | 87 | 1004.6 |
| 20260510054535 | 51 | 198 | 12.0 | 19.0 | 0.00 | 0.00 | 0.00 | 86 | 1004.6 |
| 20260510054017 | 51 | 181 | 11.0 | 18.0 | 0.00 | 0.00 | 0.00 | 85 | 1004.7 |
| 20260510053517 | 51 | 173 | 11.0 | 18.0 | 0.00 | 0.00 | 0.00 | 85 | 1004.6 |
| 20260510053038 | 51 | 185 | 11.0 | 19.0 | 0.00 | 0.00 | 0.00 | 84 | 1004.7 |
| 20260510052518 | 51 | 168 | 12.0 | 19.0 | 0.00 | 0.00 | 0.00 | 83 | 1004.8 |
| 20260510052018 | 50 | 183 | 10.0 | 17.0 | 0.00 | 0.00 | 0.00 | 84 | 1004.7 |
| 20260510051540 | 50 | 165 | 9.0 | 15.0 | 0.00 | 0.00 | 0.00 | 83 | 1004.7 |
| 20260510051018 | 50 | 163 | 10.0 | 15.0 | 0.00 | 0.00 | 0.00 | 83 | 1004.8 |
| 20260510050517 | 50 | 163 | 8.0 | 12.0 | 0.00 | 0.00 | 0.00 | 83 | 1004.8 |
| 20260510050036 | 50 | 159 | 8.0 | 14.0 | 0.00 | 0.00 | 0.00 | 83 | 1004.6 |
| 20260510045519 | 50 | 145 | 10.0 | 14.0 | 0.00 | 0.00 | 0.00 | 83 | 1004.6 |
| 20260510045018 | 50 | 146 | 9.0 | 13.0 | 0.00 | 0.00 | 0.00 | 82 | 1004.6 |
| 20260510044536 | 50 | 138 | 10.0 | 13.0 | 0.00 | 0.00 | 0.00 | 82 | 1004.6 |
| 20260510044017 | 50 | 155 | 10.0 | 15.0 | 0.00 | 0.00 | 0.00 | 82 | 1004.7 |
| 20260510043517 | 50 | 159 | 9.0 | 15.0 | 0.00 | 0.00 | 0.00 | 82 | 1004.6 |
| 20260510043034 | 50 | 136 | 8.0 | 13.0 | 0.00 | 0.00 | 0.00 | 82 | 1004.5 |
| 20260510042517 | 50 | 136 | 10.0 | 13.0 | 0.00 | 0.00 | 0.00 | 82 | 1004.7 |
| 20260510042017 | 50 | 135 | 10.0 | 13.0 | 0.00 | 0.00 | 0.00 | 82 | 1004.6 |
| 20260510041533 | 50 | 130 | 9.0 | 12.0 | 0.00 | 0.00 | 0.00 | 82 | 1004.6 |
| 20260510041018 | 50 | 132 | 9.0 | 12.0 | 0.00 | 0.00 | 0.00 | 82 | 1004.7 |
| 20260510040517 | 50 | 139 | 9.0 | 14.0 | 0.00 | 0.00 | 0.00 | 82 | 1004.7 |
| 20260510040032 | 50 | 138 | 8.0 | 14.0 | 0.00 | 0.00 | 0.00 | 81 | 1004.7 |
| 20260510035517 | 50 | 146 | 10.0 | 14.0 | 0.00 | 0.00 | 0.00 | 81 | 1004.7 |
| 20260510035018 | 50 | 136 | 9.0 | 13.0 | 0.00 | 0.00 | 0.00 | 81 | 1004.8 |
| 20260510034535 | 50 | 140 | 8.0 | 13.0 | 0.00 | 0.00 | 0.00 | 81 | 1004.9 |
| 20260510034018 | 50 | 148 | 10.0 | 13.0 | 0.00 | 0.00 | 0.00 | 81 | 1005.1 |
| 20260510033518 | 51 | 138 | 10.0 | 13.0 | 0.00 | 0.00 | 0.00 | 80 | 1005.0 |
| 20260510033032 | 51 | 147 | 8.0 | 12.0 | 0.00 | 0.00 | 0.00 | 80 | 1005.3 |
| 20260510032518 | 51 | 144 | 7.0 | 11.0 | 0.00 | 0.00 | 0.00 | 80 | 1005.1 |
| 20260510032019 | 51 | 155 | 7.0 | 11.0 | 0.00 | 0.00 | 0.00 | 80 | 1005.1 |
| 20260510031531 | 51 | 157 | 7.0 | 10.0 | 0.00 | 0.00 | 0.00 | 79 | 1005.3 |
| 20260510031016 | 51 | 155 | 7.0 | 10.0 | 0.00 | 0.00 | 0.00 | 79 | 1005.3 |
| 20260510030515 | 51 | 144 | 7.0 | 12.0 | 0.00 | 0.00 | 0.00 | 79 | 1005.4 |
| 20260510030030 | 51 | 143 | 7.0 | 12.0 | 0.00 | 0.00 | 0.00 | 79 | 1005.5 |
| 20260510025515 | 51 | 144 | 9.0 | 13.0 | 0.00 | 0.00 | 0.00 | 78 | 1005.5 |
| 20260510025015 | 51 | 150 | 10.0 | 13.0 | 0.00 | 0.00 | 0.00 | 78 | 1005.5 |
| 20260510024530 | 51 | 146 | 8.0 | 13.0 | 0.00 | 0.00 | 0.00 | 78 | 1005.7 |
| 20260510024016 | 51 | 146 | 7.0 | 13.0 | 0.00 | 0.00 | 0.00 | 78 | 1005.7 |
| 20260510023516 | 51 | 150 | 7.0 | 13.0 | 0.00 | 0.00 | 0.00 | 78 | 1005.9 |
| 20260510023034 | 51 | 146 | 9.0 | 13.0 | 0.00 | 0.00 | 0.00 | 77 | 1005.8 |
| 20260510022516 | 51 | 149 | 8.0 | 11.0 | 0.00 | 0.00 | 0.00 | 77 | 1005.8 |
| 20260510022017 | 51 | 148 | 6.0 | 12.0 | 0.00 | 0.00 | 0.00 | 77 | 1005.9 |
| 20260510021533 | 52 | 151 | 8.0 | 14.0 | 0.00 | 0.00 | 0.00 | 76 | 1005.9 |
| 20260510021015 | 52 | 147 | 9.0 | 14.0 | 0.00 | 0.00 | 0.00 | 76 | 1006.0 |
| 20260510020520 | 52 | 145 | 10.0 | 14.0 | 0.00 | 0.00 | 0.00 | 76 | 1005.9 |
| 20260510020036 | 52 | 146 | 10.0 | 12.0 | 0.00 | 0.00 | 0.00 | 76 | 1006.0 |
| 20260510015515 | 52 | 137 | 8.0 | 15.0 | 0.00 | 0.00 | 0.00 | 75 | 1006.1 |
| 20260510015020 | 52 | 155 | 9.0 | 17.0 | 0.00 | 0.00 | 0.00 | 75 | 1006.2 |
| 20260510014536 | 52 | 153 | 12.0 | 17.0 | 0.00 | 0.00 | 0.00 | 75 | 1006.2 |
| 20260510014016 | 52 | 145 | 9.0 | 15.0 | 0.00 | 0.00 | 0.00 | 75 | 1006.3 |
| 20260510013516 | 52 | 161 | 9.0 | 14.0 | 0.00 | 0.00 | 0.00 | 75 | 1006.2 |
| 20260510013029 | 52 | 153 | 8.0 | 13.0 | 0.00 | 0.00 | 0.00 | 74 | 1006.2 |
| 20260510012515 | 52 | 134 | 9.0 | 13.0 | 0.00 | 0.00 | 0.00 | 73 | 1006.3 |
| 20260510012019 | 52 | 142 | 7.0 | 13.0 | 0.00 | 0.00 | 0.00 | 73 | 1006.2 |
| 20260510011538 | 52 | 153 | 8.0 | 13.0 | 0.00 | 0.00 | 0.00 | 73 | 1006.3 |
| 20260510011016 | 52 | 141 | 6.0 | 12.0 | 0.00 | 0.00 | 0.00 | 72 | 1006.3 |
| 20260510010516 | 53 | 146 | 5.0 | 14.0 | 0.00 | 0.00 | 0.00 | 72 | 1006.4 |
| 20260510010029 | 53 | 165 | 8.0 | 15.0 | 0.00 | 0.00 | 0.00 | 71 | 1006.6 |
| 20260510005516 | 53 | 159 | 10.0 | 20.0 | 0.00 | 0.00 | 0.00 | 71 | 1006.6 |
| 20260510005016 | 53 | 161 | 14.0 | 21.0 | 0.00 | 0.00 | 0.00 | 70 | 1006.6 |
| 20260510004531 | 53 | 151 | 12.0 | 21.0 | 0.00 | 0.00 | 0.00 | 70 | 1006.4 |
| 20260510004016 | 54 | 169 | 13.0 | 24.0 | 0.00 | 0.00 | 0.00 | 69 | 1006.2 |
| 20260510003516 | 54 | 161 | 16.0 | 24.0 | 0.00 | 0.00 | 0.00 | 68 | 1006.1 |
| 20260510003031 | 54 | 157 | 15.0 | 28.0 | 0.00 | 0.00 | 0.00 | 67 | 1006.2 |
| 20260510002517 | 55 | 173 | 17.0 | 28.0 | 0.00 | 0.00 | 0.00 | 66 | 1006.0 |
| 20260510002015 | 55 | 152 | 15.0 | 23.0 | 0.00 | 0.00 | 0.00 | 66 | 1005.9 |
| 20260510001532 | 55 | 150 | 15.0 | 21.0 | 0.00 | 0.00 | 0.00 | 65 | 1006.0 |
| 20260510001016 | 55 | 142 | 15.0 | 21.0 | 0.00 | 0.00 | 0.00 | 64 | 1005.8 |
| 20260510000516 | 56 | 144 | 13.0 | 19.0 | 0.00 | 0.00 | 0.00 | 64 | 1005.7 |
| 20260510000054 | 56 | 160 | 11.0 | 19.0 | 0.00 | 0.00 | 0.00 | 63 | 1005.7 |
| 20260509235518 | 56 | 190 | 13.0 | 20.0 | 0.00 | 0.00 | 0.00 | 62 | 1005.6 |
| 20260509235023 | 56 | 161 | 14.0 | 22.0 | 0.00 | 0.00 | 0.00 | 61 | 1005.6 |
| 20260509234546 | 57 | 164 | 14.0 | 22.0 | 0.00 | 0.00 | 0.00 | 60 | 1005.6 |
| 20260509234015 | 57 | 157 | 13.0 | 19.0 | 0.00 | 0.00 | 0.00 | 59 | 1005.7 |
| 20260509233519 | 57 | 161 | 14.0 | 19.0 | 0.00 | 0.00 | 0.00 | 57 | 1005.6 |
| 20260509233032 | 58 | 171 | 9.0 | 16.0 | 0.00 | 0.00 | 0.00 | 56 | 1005.7 |
| 20260509232519 | 58 | 179 | 11.0 | 19.0 | 0.00 | 0.00 | 0.00 | 55 | 1005.7 |
| 20260509232016 | 59 | 175 | 13.0 | 24.0 | 0.00 | 0.00 | 0.00 | 51 | 1005.7 |
| 20260509231535 | 60 | 200 | 14.0 | 24.0 | 0.00 | 0.00 | 0.00 | 50 | 1005.8 |
| 20260509231016 | 60 | 176 | 15.0 | 26.0 | 0.00 | 0.00 | 0.00 | 50 | 1005.8 |
| 20260509230516 | 60 | 194 | 18.0 | 26.0 | 0.00 | 0.00 | 0.00 | 50 | 1005.9 |
| 20260509230035 | 60 | 167 | 15.0 | 26.0 | 0.00 | 0.00 | 0.00 | 50 | 1005.9 |
| 20260509225516 | 61 | 173 | 15.0 | 24.0 | 0.00 | 0.00 | 0.00 | 49 | 1005.9 |
| 20260509225016 | 61 | 204 | 14.0 | 25.0 | 0.00 | 0.00 | 0.00 | 50 | 1005.9 |
| 20260509224532 | 61 | 178 | 17.0 | 25.0 | 0.00 | 0.00 | 0.00 | 49 | 1005.9 |
| 20260509224015 | 61 | 159 | 14.0 | 26.0 | 0.00 | 0.00 | 0.00 | 49 | 1005.9 |
| 20260509223516 | 61 | 169 | 16.0 | 26.0 | 0.00 | 0.00 | 0.00 | 48 | 1006.0 |
| 20260509223032 | 62 | 209 | 15.0 | 25.0 | 0.00 | 0.00 | 0.00 | 47 | 1005.9 |
| 20260509222516 | 62 | 217 | 14.0 | 23.0 | 0.00 | 0.00 | 0.00 | 45 | 1005.8 |
| 20260509222016 | 63 | 169 | 15.0 | 23.0 | 0.00 | 0.00 | 0.00 | 43 | 1005.9 |
| 20260509221532 | 63 | 184 | 13.0 | 22.0 | 0.00 | 0.00 | 0.00 | 41 | 1005.8 |
| 20260509221017 | 63 | 175 | 16.0 | 22.0 | 0.00 | 0.00 | 0.00 | 38 | 1005.9 |
| 20260509220518 | 63 | 175 | 15.0 | 21.0 | 0.00 | 0.00 | 0.00 | 37 | 1005.8 |
| 20260509220032 | 63 | 161 | 13.0 | 22.0 | 0.00 | 0.00 | 0.00 | 39 | 1005.7 |
| 20260509215517 | 63 | 178 | 16.0 | 22.0 | 0.00 | 0.00 | 0.00 | 35 | 1005.9 |
| 20260509215020 | 64 | 174 | 17.0 | 24.0 | 0.00 | 0.00 | 0.00 | 35 | 1005.9 |
| 20260509214535 | 64 | 200 | 13.0 | 24.0 | 0.00 | 0.00 | 0.00 | 36 | 1005.9 |
| 20260509214016 | 64 | 198 | 12.0 | 23.0 | 0.00 | 0.00 | 0.00 | 32 | 1005.9 |
| 20260509213516 | 64 | 187 | 16.0 | 26.0 | 0.00 | 0.00 | 0.00 | 31 | 1005.9 |
| 20260509213038 | 64 | 168 | 16.0 | 26.0 | 0.00 | 0.00 | 0.00 | 31 | 1005.9 |
| 20260509212516 | 64 | 169 | 15.0 | 24.0 | 0.00 | 0.00 | 0.00 | 31 | 1005.9 |
| 20260509212017 | 64 | 131 | 12.0 | 24.0 | 0.00 | 0.00 | 0.00 | 28 | 1005.7 |
| 20260509211532 | 65 | 166 | 12.0 | 21.0 | 0.00 | 0.00 | 0.00 | 29 | 1005.8 |
| 20260509211016 | 65 | 165 | 15.0 | 19.0 | 0.00 | 0.00 | 0.00 | 28 | 1005.9 |
| 20260509210517 | 65 | 196 | 10.0 | 18.0 | 0.00 | 0.00 | 0.00 | 28 | 1005.7 |
| 20260509210039 | 65 | 157 | 12.0 | 22.0 | 0.00 | 0.00 | 0.00 | 28 | 1005.7 |
| 20260509205516 | 65 | 227 | 16.0 | 22.0 | 0.00 | 0.00 | 0.00 | 29 | 1005.9 |
| 20260509205016 | 65 | 211 | 11.0 | 18.0 | 0.00 | 0.00 | 0.00 | 29 | 1005.9 |
| 20260509204540 | 65 | 161 | 13.0 | 19.0 | 0.00 | 0.00 | 0.00 | 28 | 1006.0 |
| 20260509204021 | 65 | 148 | 12.0 | 24.0 | 0.00 | 0.00 | 0.00 | 27 | 1006.1 |
| 20260509203516 | 65 | 198 | 14.0 | 24.0 | 0.00 | 0.00 | 0.00 | 26 | 1006.2 |
| 20260509203031 | 65 | 194 | 13.0 | 23.0 | 0.00 | 0.00 | 0.00 | 26 | 1006.3 |
| 20260509202516 | 65 | 173 | 14.0 | 22.0 | 0.00 | 0.00 | 0.00 | 25 | 1006.2 |
| 20260509202018 | 65 | 167 | 11.0 | 22.0 | 0.00 | 0.00 | 0.00 | 27 | 1006.2 |